DW8215 Weather Reports


Display with metric or nautical units.
time (UTC)temp
F
wind
direction
speed
MPH
gust
MPH
rain 1hr
in
rain 24hr
in
rain mn
in
humidity
%
barometer
mb
20260502163028 53 184 2.0 8.0 0.00 0.00 0.00 44 1017.3
20260502161524 51 140 1.0 6.0 0.00 0.00 0.00 44 1017.5
20260502151538 50 279 2.0 5.0 0.00 0.00 0.00 45 1018.2
20260502123039 33 126 1.0 3.0 0.00 0.00 0.00 79 1019.9
20260502121536 31 184 0.0 0.0 0.00 0.00 0.00 85 1020.0
20260502114527 27 254 0.0 0.0 0.00 0.00 0.00 91 1020.0
20260502113034 25 254 0.0 0.0 0.00 0.00 0.00 92 1019.9
20260502111525 25 254 0.0 0.0 0.00 0.00 0.00 92 1019.9
20260502110033 24 254 0.0 0.0 0.00 0.00 0.00 92 1019.9
20260502104525 24 254 0.0 0.0 0.00 0.00 0.00 92 1019.8
20260502103024 24 254 0.0 0.0 0.00 0.00 0.00 92 1019.9
20260502101525 24 254 0.0 0.0 0.00 0.00 0.00 92 1019.8
20260502091521 24 254 0.0 0.0 0.00 0.00 0.00 91 1019.8
20260502090120 24 254 0.0 0.0 0.00 0.00 0.00 91 1019.7
20260502071510 25 254 0.0 0.0 0.00 0.00 0.00 90 1020.0
20260502070024 25 254 0.0 0.0 0.00 0.00 0.00 90 1020.1
20260502064508 25 254 0.0 0.0 0.00 0.00 0.00 89 1020.1
20260502063015 26 254 0.0 0.0 0.00 0.00 0.00 89 1020.3
20260502061505 26 254 0.0 0.0 0.00 0.00 0.00 89 1020.3
20260502060003 26 254 0.0 0.0 0.00 0.00 0.00 88 1020.4
20260502054501 26 254 0.0 0.0 0.00 0.00 0.00 88 1020.4
20260502053059 26 254 0.0 0.0 0.00 0.00 0.00 88 1020.6
20260502051558 27 254 0.0 0.0 0.00 0.00 0.00 87 1020.6
20260502050056 27 254 0.0 0.0 0.00 0.00 0.00 87 1020.6
20260502044558 27 254 0.0 0.0 0.00 0.00 0.00 86 1020.7
20260502043054 27 254 0.0 0.0 0.00 0.00 0.00 86 1020.7
20260502041559 28 254 0.0 0.0 0.00 0.00 0.00 85 1020.7
20260502040049 28 254 0.0 0.0 0.00 0.00 0.00 84 1020.6
20260502034548 28 254 0.0 0.0 0.00 0.00 0.00 83 1020.6
20260502033048 29 250 0.0 0.0 0.00 0.00 0.00 83 1020.6
20260502031547 29 250 0.0 2.0 0.00 0.00 0.00 82 1020.7
20260502030043 29 303 0.0 0.0 0.00 0.00 0.00 82 1020.7
20260502024551 30 303 0.0 0.0 0.00 0.00 0.00 81 1020.7
20260502023059 30 303 0.0 0.0 0.00 0.00 0.00 81 1020.7
20260502021536 31 303 0.0 0.0 0.00 0.00 0.00 80 1020.7
20260502020033 32 303 0.0 0.0 0.00 0.00 0.00 75 1020.5
20260502014534 34 309 0.0 0.0 0.00 0.00 0.00 72 1020.5
20260502013032 35 349 0.0 1.0 0.00 0.00 0.00 68 1020.4
20260502011530 36 349 1.0 3.0 0.00 0.00 0.00 65 1020.4
20260502010033 38 340 1.0 3.0 0.00 0.00 0.00 61 1020.3
20260502004531 39 355 1.0 3.0 0.00 0.00 0.00 58 1020.3
20260502003026 40 5 0.0 3.0 0.00 0.00 0.00 57 1020.2
20260502001526 40 355 1.0 4.0 0.00 0.00 0.00 55 1020.1
20260502000039 41 48 2.0 5.0 0.00 0.00 0.00 51 1020.1
20260501234526 42 25 1.0 4.0 0.00 0.00 0.00 51 1020.0
20260501233024 43 29 2.0 5.0 0.00 0.00 0.00 50 1019.9
20260501231523 44 59 2.0 5.0 0.00 0.00 0.00 48 1019.9
20260501230027 44 346 2.0 6.0 0.00 0.00 0.00 50 1020.0
20260501224530 44 37 3.0 5.0 0.00 0.00 0.00 46 1019.8
20260501223023 43 360 2.0 6.0 0.00 0.00 0.00 48 1019.9
20260501221521 42 22 2.0 5.0 0.00 0.00 0.00 49 1019.8
20260501220026 44 44 2.0 5.0 0.00 0.00 0.00 47 1019.8
20260501214519 45 30 2.0 5.0 0.00 0.00 0.00 48 1019.7
20260501213018 42 71 2.0 5.0 0.00 0.00 0.00 47 1019.7
20260501211520 44 340 2.0 6.0 0.00 0.00 0.00 47 1019.7
20260501210016 44 344 2.0 6.0 0.00 0.00 0.00 48 1019.7
20260501204515 43 29 2.0 11.0 0.00 0.00 0.00 48 1019.8
20260501203009 44 65 2.0 6.0 0.00 0.00 0.00 52 1019.9
20260501201511 43 35 2.0 8.0 0.00 0.00 0.00 53 1020.0
20260501200006 42 30 2.0 8.0 0.00 0.00 0.00 57 1020.0
20260501194509 42 27 4.0 9.0 0.00 0.00 0.00 56 1019.9
20260501193004 42 42 4.0 7.0 0.00 0.00 0.00 56 1019.9
20260501191504 41 5 3.0 6.0 0.00 0.00 0.00 57 1019.9
20260501190004 42 343 3.0 6.0 0.00 0.00 0.00 56 1019.8
20260501184502 41 57 3.0 9.0 0.00 0.00 0.00 57 1019.9
20260501183003 42 38 2.0 5.0 0.00 0.00 0.00 59 1019.8
20260501181501 42 30 2.0 6.0 0.00 0.00 0.00 57 1019.8